| time (UTC) | temp C | wind direction | speed KPH | gust KPH | rain 1hr cm | rain 24hr cm | rain mn cm | humidity % | barometer mb |
| 20260503200026 | 18 | 15 | 4.8 | 22.5 | 0.00 | 0.00 | 0.00 | 41 | 1003.0 |
| 20260503194525 | 18 | 311 | 4.8 | 19.3 | 0.00 | 0.00 | 0.00 | 40 | 1003.2 |
| 20260503193025 | 19 | 88 | 3.2 | 32.2 | 0.00 | 0.00 | 0.00 | 46 | 1003.2 |
| 20260503191522 | 19 | 188 | 3.2 | 22.5 | 0.00 | 0.00 | 0.00 | 45 | 1003.4 |
| 20260503190020 | 18 | 73 | 4.8 | 19.3 | 0.00 | 0.00 | 0.00 | 43 | 1003.6 |
| 20260503184521 | 18 | 239 | 6.4 | 19.3 | 0.00 | 0.00 | 0.00 | 43 | 1003.6 |
| 20260503183020 | 18 | 243 | 6.4 | 20.9 | 0.00 | 0.00 | 0.00 | 45 | 1003.8 |
| 20260503181517 | 18 | 338 | 8.0 | 22.5 | 0.00 | 0.00 | 0.00 | 45 | 1004.0 |
| 20260503180023 | 18 | 28 | 6.4 | 27.4 | 0.00 | 0.00 | 0.00 | 46 | 1004.1 |
| 20260503174514 | 17 | 246 | 6.4 | 29.0 | 0.00 | 0.00 | 0.00 | 44 | 1004.3 |
| 20260503173016 | 17 | 316 | 4.8 | 16.1 | 0.00 | 0.00 | 0.00 | 45 | 1004.4 |
| 20260503171506 | 17 | 28 | 8.0 | 24.1 | 0.00 | 0.00 | 0.00 | 45 | 1004.5 |
| 20260503100104 | 6 | 212 | 0.0 | 0.0 | 0.00 | 0.00 | 0.00 | 77 | 1007.5 |
| 20260503081550 | 8 | 212 | 0.0 | 4.8 | 0.00 | 0.00 | 0.00 | 71 | 1009.0 |
| 20260503071553 | 8 | 213 | 1.6 | 6.4 | 0.00 | 0.00 | 0.00 | 69 | 1009.6 |
| 20260503054528 | 7 | 245 | 0.0 | 3.2 | 0.00 | 0.00 | 0.00 | 71 | 1010.1 |
| 20260503053025 | 7 | 245 | 0.0 | 3.2 | 0.00 | 0.00 | 0.00 | 69 | 1010.3 |
| 20260503051525 | 7 | 245 | 0.0 | 1.6 | 0.00 | 0.00 | 0.00 | 67 | 1010.5 |
| 20260503050017 | 7 | 245 | 0.0 | 3.2 | 0.00 | 0.00 | 0.00 | 67 | 1010.8 |
| 20260503044525 | 7 | 249 | 1.6 | 6.4 | 0.00 | 0.00 | 0.00 | 68 | 1010.8 |
| 20260503043016 | 7 | 126 | 0.0 | 1.6 | 0.00 | 0.00 | 0.00 | 68 | 1010.9 |
| 20260503041515 | 7 | 126 | 1.6 | 3.2 | 0.00 | 0.00 | 0.00 | 68 | 1011.0 |
| 20260503040015 | 7 | 126 | 0.0 | 3.2 | 0.00 | 0.00 | 0.00 | 68 | 1011.2 |
| 20260503034511 | 7 | 126 | 0.0 | 3.2 | 0.00 | 0.00 | 0.00 | 65 | 1011.5 |
| 20260503033010 | 8 | 126 | 0.0 | 0.0 | 0.00 | 0.00 | 0.00 | 64 | 1011.7 |
| 20260503031508 | 8 | 126 | 0.0 | 3.2 | 0.00 | 0.00 | 0.00 | 64 | 1011.9 |
| 20260503030006 | 9 | 126 | 0.0 | 1.6 | 0.00 | 0.00 | 0.00 | 60 | 1012.0 |
| 20260503024504 | 10 | 126 | 0.0 | 0.0 | 0.00 | 0.00 | 0.00 | 55 | 1012.3 |
| 20260503023011 | 10 | 126 | 0.0 | 1.6 | 0.00 | 0.00 | 0.00 | 56 | 1012.4 |
| 20260503021503 | 10 | 126 | 0.0 | 4.8 | 0.00 | 0.00 | 0.00 | 55 | 1012.5 |
| 20260503020002 | 10 | 124 | 0.0 | 3.2 | 0.00 | 0.00 | 0.00 | 53 | 1012.5 |
| 20260503014502 | 11 | 124 | 0.0 | 1.6 | 0.00 | 0.00 | 0.00 | 49 | 1012.5 |
| 20260503013001 | 11 | 124 | 0.0 | 3.2 | 0.00 | 0.00 | 0.00 | 49 | 1012.4 |
| 20260503011608 | 11 | 123 | 0.0 | 4.8 | 0.00 | 0.00 | 0.00 | 46 | 1012.5 |
| 20260503010100 | 12 | 221 | 0.0 | 6.4 | 0.00 | 0.00 | 0.00 | 44 | 1012.8 |
| 20260503004557 | 12 | 220 | 3.2 | 6.4 | 0.00 | 0.00 | 0.00 | 43 | 1012.8 |
| 20260503003104 | 12 | 209 | 4.8 | 11.3 | 0.00 | 0.00 | 0.00 | 41 | 1013.0 |
| 20260503001554 | 13 | 225 | 3.2 | 17.7 | 0.00 | 0.00 | 0.00 | 40 | 1013.1 |
| 20260503000108 | 13 | 324 | 4.8 | 14.5 | 0.00 | 0.00 | 0.00 | 39 | 1013.2 |
| 20260502234551 | 13 | 17 | 1.6 | 12.9 | 0.00 | 0.00 | 0.00 | 38 | 1013.3 |
| 20260502233051 | 13 | 332 | 3.2 | 19.3 | 0.00 | 0.00 | 0.00 | 37 | 1013.5 |
| 20260502231550 | 13 | 13 | 3.2 | 19.3 | 0.00 | 0.00 | 0.00 | 37 | 1013.4 |
| 20260502230051 | 14 | 301 | 4.8 | 24.1 | 0.00 | 0.00 | 0.00 | 33 | 1013.5 |
| 20260502224548 | 15 | 315 | 4.8 | 25.7 | 0.00 | 0.00 | 0.00 | 32 | 1013.5 |
| 20260502223047 | 15 | 211 | 4.8 | 19.3 | 0.00 | 0.00 | 0.00 | 31 | 1013.7 |
| 20260502221546 | 14 | 214 | 4.8 | 20.9 | 0.00 | 0.00 | 0.00 | 35 | 1013.7 |
| 20260502220046 | 14 | 340 | 4.8 | 19.3 | 0.00 | 0.00 | 0.00 | 32 | 1013.9 |
| 20260502214542 | 14 | 257 | 3.2 | 20.9 | 0.00 | 0.00 | 0.00 | 35 | 1014.0 |
| 20260502213041 | 15 | 213 | 9.7 | 25.7 | 0.00 | 0.00 | 0.00 | 31 | 1014.2 |
| 20260502211547 | 14 | 28 | 6.4 | 16.1 | 0.00 | 0.00 | 0.00 | 33 | 1014.3 |
| 20260502210037 | 14 | 11 | 8.0 | 25.7 | 0.00 | 0.00 | 0.00 | 33 | 1014.3 |
| 20260502204536 | 14 | 238 | 6.4 | 20.9 | 0.00 | 0.00 | 0.00 | 34 | 1014.5 |
| 20260502203034 | 14 | 354 | 1.6 | 22.5 | 0.00 | 0.00 | 0.00 | 33 | 1014.7 |
| 20260502201534 | 14 | 338 | 6.4 | 16.1 | 0.00 | 0.00 | 0.00 | 31 | 1015.2 |